Hourly Data Report for October 19, 2015

All times are specified in Local Standard Time (LST). Add 1 hour to adjust for Daylight Saving Time where and when it is observed.

CHARLOTTETOWN A
PRINCE EDWARD ISLAND

46°17'21.000" N
63°07'09.000" W
48.50 m
8300301
71706
YYG

Download Data

Hourly Data (October 2015)
Hourly Data Report for October 19, 2015
Temp Definition
°C
Dew Point Temp Definition
°C
Rel Hum Definition
%
Wind Dir Definition
10's deg

Wind Spd Definition
km/h
Visibility Definition
km
Stn Press Definition
kPa
Hmdx Definition


Wind Chill Definition


Weather Definition


TIME
00:00 Legend Double Dagger -0.2 -3.1 81 28 11 24.1 100.92   -4 LegendNANA
01:00 Legend Double Dagger -0.8 -2.7 87 26 9 24.1 100.97   -4 LegendNANA
02:00 Legend Double Dagger -0.1 -1.1 93 28 12 24.1 100.98   -4 Mainly Clear
03:00 Legend Double Dagger 0.3 -0.1 97 25 7 9.7 101.01     Snow Showers
04:00 Legend Double Dagger 0.4 0.0 97 30 12 2.4 101.07     Snow Showers
05:00 Legend Double Dagger 0.3 -0.1 97 36 11 6.4 101.13     Snow Showers
06:00 Legend Double Dagger 0.5 0.1 97 25 9 24.1 101.19     LegendNANA
07:00 Legend Double Dagger 1.0 -0.9 87 29 10 24.1 101.26     LegendNANA
08:00 Legend Double Dagger 1.1 -1.3 84 28 15 24.1 101.31     Snow Showers
09:00 Legend Double Dagger 2.0 -0.9 81 28 17 24.1 101.37     LegendNANA
10:00 Legend Double Dagger 3.4 -0.6 75 28 17 24.1 101.42     LegendNANA
11:00 Legend Double Dagger 3.8 -2.2 65 28 26 24.1 101.44     Mainly Clear
12:00 Legend Double Dagger 3.3 -2.5 66 29 21 24.1 101.45     LegendNANA
13:00 Legend Double Dagger 3.5 -3.1 62 28 19 24.1 101.43     LegendNANA
14:00 Legend Double Dagger 2.8 -3.8 62 28 23 24.1 101.43     Mostly Cloudy
15:00 Legend Double Dagger 3.1 -3.9 60 29 17 24.1 101.47     LegendNANA
16:00 Legend Double Dagger 3.0 -4.2 59 30 15 24.1 101.47     LegendNANA
17:00 Legend Double Dagger 1.7 -5.0 61 28 14 24.1 101.45     Mainly Clear
18:00 Legend Double Dagger 0.1 -4.7 70 27 9 24.1 101.46     LegendNANA
19:00 Legend Double Dagger -1.1 -5.2 74 27 7 24.1 101.51   -4 LegendNANA
20:00 Legend Double Dagger -2.8 -5.0 85 36 2 24.1 101.46   -4 Mainly Clear
21:00 Legend Double Dagger -2.8 -5.5 82 23 7 24.1 101.50   -6 LegendNANA
22:00 Legend Double Dagger -0.1 -5.7 66 20 8 24.1 101.42   -3 LegendNANA
23:00 Legend Double Dagger 0.3 -5.7 64 25 9 24.1 101.39     Mainly Clear

Notes on Data Quality.

Legend

  • E = Estimated
  • M = Missing
  • NA = Not Available
  • ‡ = Partner data that is not subject to review by the National Climate Archives
Date modified: